Wind_Speed
32 26 23 24 24 25 26 25 23 19 19 21 22 22 22 21 20 19 18 16 16 16 16 16 16 17 18 18 18 17 17 18 18 17 17 17 17 17 18 18 18 18 17 17
35 31 26 25 25 25 26 26 25 23 23 23 22 23 23 23 23 21 20 18 17 17 18 18 18 18 19 19 19 19 18 18 18 18 18 18 18 18 19 19 19 18 18 18
36 32 30 31 29 27 27 26 26 25 26 26 26 24 24 25 24 23 21 21 20 19 19 19 19 19 20 20 20 20 20 19 18 18 19 19 19 19 19 19 19 19 19 19
37 34 35 32 28 27 27 28 28 27 27 27 27 27 28 27 26 24 24 23 22 21 20 20 21 21 21 21 21 21 21 20 19 19 19 20 20 20 20 20 20 20 20 20
38 36 34 31 30 29 29 31 30 28 28 28 29 29 29 28 27 26 25 25 24 23 22 22 22 22 22 22 22 22 22 21 21 20 20 20 20 21 21 21 21 21 21 21
39 36 34 30 29 28 29 32 31 30 30 30 31 31 29 29 28 28 26 26 25 25 24 23 23 23 23 24 23 23 23 23 23 22 22 21 21 22 22 22 22 22 21 21
39 37 34 29 29 30 32 32 30 30 32 32 32 32 30 30 29 29 28 27 27 26 25 25 25 25 25 25 25 24 24 24 24 24 23 23 23 23 23 23 23 23 22 22
39 37 34 32 30 32 33 31 31 31 33 33 33 32 32 32 31 31 30 29 27 27 27 27 27 26 26 26 26 26 25 24 25 25 24 25 24 24 24 23 23 23 23 22
38 39 37 36 36 35 35 33 32 32 32 31 32 32 32 32 31 31 30 29 28 28 28 28 28 28 28 27 27 27 26 26 25 25 25 26 25 25 25 24 24 23 23 23
40 41 40 39 38 37 36 34 33 32 32 32 33 33 33 32 31 32 31 30 29 29 29 29 29 29 29 29 28 28 27 26 26 26 26 26 26 25 25 24 24 24 24 24
42 41 40 40 40 40 38 35 33 33 33 33 33 33 33 33 32 32 32 31 31 31 31 31 31 30 30 29 29 28 28 28 27 27 27 27 26 26 25 25 26 26 25 25
42 42 41 42 42 40 38 36 34 33 33 33 34 33 33 33 31 31 32 31 31 31 32 32 32 31 30 30 29 29 29 28 28 28 27 26 26 26 26 26 26 27 26 26
39 39 39 38 39 39 38 36 34 34 33 33 34 33 33 32 31 31 32 32 31 32 32 32 32 32 31 30 29 29 28 28 28 28 28 27 26 26 26 27 28 27 27 27
38 37 38 39 39 38 37 36 35 35 35 34 34 33 33 33 33 33 33 33 32 32 32 32 32 32 31 31 30 30 30 29 29 28 28 28 28 28 27 28 28 28 28 28
40 39 38 38 37 37 37 36 36 36 35 35 34 33 33 33 33 34 34 33 33 33 33 33 32 32 32 31 31 31 31 30 30 29 29 29 29 30 29 29 30 29 29 28
39 39 39 38 37 36 36 35 35 36 37 35 34 34 34 34 34 34 34 34 34 34 33 33 33 32 32 31 31 32 32 32 31 30 31 31 31 30 30 30 30 31 29 28
39 39 39 37 36 36 36 35 36 36 37 37 36 35 35 34 34 34 35 34 34 34 34 33 33 32 32 31 32 32 32 31 31 31 31 31 31 30 30 30 30 29 29 28
39 39 38 36 35 36 35 36 36 36 36 35 36 35 35 35 35 35 35 34 35 34 34 34 33 32 32 32 32 32 32 32 32 31 31 31 31 32 31 31 30 30 29 29
38 37 36 35 34 35 35 34 34 34 34 34 34 34 34 34 35 35 34 35 35 35 35 35 34 33 33 32 33 33 32 32 32 33 33 32 32 32 31 31 31 30 30 29
35 35 35 34 33 33 34 34 33 33 33 32 33 33 33 34 34 34 33 33 34 34 35 35 35 34 34 33 33 33 33 33 34 33 33 32 31 31 31 32 32 31 31 31
32 32 33 32 32 32 32 32 31 31 31 31 31 32 32 33 33 33 33 32 32 32 33 34 35 35 35 34 33 34 34 34 33 33 32 32 31 31 30 31 31 31 31 32
30 30 30 30 31 31 31 31 30 30 30 31 31 31 32 32 32 31 31 31 30 30 31 32 33 34 34 34 33 33 34 34 33 33 31 30 30 31 31 32 32 32 32 32
27 27 28 29 29 29 29 30 29 29 29 30 31 31 32 32 32 32 31 31 31 30 31 31 32 32 33 33 33 33 33 32 31 30 30 29 29 29 30 30 31 32 32 33
25 25 26 26 27 27 27 28 29 29 29 30 30 30 30 30 30 31 31 31 31 31 31 32 32 32 32 32 32 32 32 31 30 30 30 30 30 30 31 31 32 32 33 33
24 24 25 26 26 26 26 27 28 28 29 30 30 30 29 29 30 30 29 30 31 31 31 30 30 31 31 31 31 31 30 30 29 29 30 30 31 31 32 32 32 32 32 33
22 22 23 24 25 25 25 26 27 28 29 29 29 29 29 29 29 29 29 29 29 29 28 29 30 29 29 30 31 30 30 29 29 30 30 30 29 30 31 31 31 31 31 31
21 21 21 22 23 24 24 25 26 26 26 26 26 27 27 27 27 27 27 27 26 26 26 27 27 27 27 27 27 27 28 28 28 29 29 29 29 29 28 28 29 30 30 31
Wind_Direction
212 213 227 236 233 230 230 228 229 231 244 252 256 258 263 264 266 273 277 277 280 284 287 294 299 306 313 316 319 321 322 323 324 325 326 328 329 329 328 328 328 328 327 326
218 213 217 227 232 230 231 231 230 230 235 244 249 255 259 261 263 268 273 276 277 280 283 289 294 300 307 309 311 314 316 317 318 319 320 322 324 325 325 325 325 325 325 324
221 219 221 226 229 232 234 233 232 234 239 244 247 251 259 260 262 266 269 273 276 278 283 287 291 295 300 302 305 308 309 310 312 313 314 316 318 320 322 323 324 324 323 322
221 221 226 227 229 232 235 234 232 235 241 247 252 254 256 260 263 264 266 271 275 279 281 285 289 292 295 297 300 303 304 305 307 308 309 312 315 316 318 320 321 321 321 321
223 225 230 230 228 229 234 238 236 237 240 247 251 254 258 261 263 265 265 268 272 276 279 283 287 290 292 295 298 299 300 301 303 304 305 307 310 313 314 316 317 318 317 319
225 225 229 230 230 232 235 240 238 238 241 244 248 252 256 259 262 265 266 268 270 273 276 280 284 287 290 293 296 296 296 296 298 300 302 303 306 309 311 313 314 315 314 315
224 225 227 229 230 232 236 239 240 240 243 243 247 252 255 258 260 263 265 267 269 271 275 278 280 284 287 291 293 293 294 292 293 295 298 299 302 304 306 308 310 312 312 313
225 224 225 226 229 230 236 240 241 240 243 246 248 250 253 256 258 261 263 264 267 270 274 276 278 280 284 288 290 291 292 292 293 293 295 296 298 300 301 303 305 308 309 310
226 227 225 226 230 234 237 240 243 244 243 245 249 251 253 256 259 260 262 264 265 269 272 275 278 281 282 286 287 288 289 290 292 293 293 295 296 298 298 299 301 303 306 308
226 227 227 229 232 236 239 240 242 243 244 245 248 251 253 255 258 259 262 264 264 267 271 275 278 281 282 284 284 284 285 288 290 291 292 293 294 295 295 296 298 300 302 304
227 228 229 230 234 236 238 240 243 244 246 247 250 252 254 256 257 260 261 262 263 266 270 273 276 279 281 282 282 283 284 285 286 289 290 292 292 291 292 294 296 298 299 300
228 230 231 232 234 237 239 240 242 246 248 248 249 252 254 256 257 260 262 262 263 266 268 271 274 276 278 280 280 281 283 284 285 287 289 290 290 290 290 292 294 297 298 300
229 230 233 235 236 239 240 241 242 245 247 249 249 251 254 257 258 259 261 262 264 266 268 270 273 275 276 276 278 279 281 283 284 286 288 290 289 289 289 291 293 293 296 298
227 231 234 237 240 241 242 242 245 246 247 249 251 253 255 256 258 260 262 263 264 265 266 269 272 274 274 274 276 277 279 281 282 285 287 288 288 288 289 290 290 291 293 295
227 231 234 237 240 241 242 243 245 246 249 250 251 254 256 258 260 261 262 262 264 265 266 268 271 273 272 272 274 275 278 280 281 282 284 286 287 287 288 289 290 290 291 292
229 231 235 237 240 241 241 243 245 247 249 251 252 254 257 259 261 262 262 263 264 265 265 266 270 273 272 271 272 273 276 278 281 282 282 284 286 286 288 289 289 290 289 289
230 232 235 238 239 240 242 243 245 247 250 252 253 254 257 259 261 262 264 263 262 263 264 264 268 271 270 271 272 273 275 277 279 281 282 283 284 286 288 288 288 288 288 289
232 233 236 239 242 242 243 245 248 248 250 253 253 254 256 258 260 262 263 263 263 262 262 263 266 268 270 271 271 272 274 277 279 281 282 283 284 285 286 288 289 290 290 290
233 234 236 238 240 243 245 246 248 249 250 251 253 254 256 258 260 261 264 265 263 261 262 262 264 268 270 270 270 271 274 277 279 281 281 281 283 283 283 285 287 289 291 292
232 233 234 237 239 242 244 245 246 247 248 250 252 253 255 258 260 261 263 265 265 264 262 262 264 268 271 271 271 272 274 276 278 279 278 278 281 282 282 283 286 287 289 291
230 231 234 237 239 242 243 245 247 248 249 251 253 256 256 257 260 262 262 263 264 264 263 263 265 267 269 269 270 272 274 276 276 276 276 277 278 279 281 283 285 287 289 291
230 232 234 236 238 240 242 244 246 246 248 250 253 256 257 259 261 261 262 263 265 264 264 264 264 265 266 268 270 272 274 275 274 274 277 278 278 278 280 282 284 287 289 290
229 231 233 234 235 237 240 242 244 247 249 251 253 255 258 261 262 262 263 264 265 266 266 266 264 264 265 268 270 271 272 272 273 275 277 278 279 281 283 285 285 287 287 288
228 230 232 233 234 237 241 243 246 249 251 253 255 256 258 260 262 263 265 265 265 267 267 265 264 264 266 268 270 271 271 272 273 274 275 276 278 280 283 284 285 287 287 288
227 230 232 233 235 238 242 245 247 250 252 254 256 256 258 261 263 265 266 266 266 267 268 268 267 266 266 267 268 270 270 271 271 273 275 277 279 281 283 285 285 286 288 289
228 231 233 235 236 238 242 246 248 250 252 254 254 256 258 261 264 265 266 266 267 267 269 270 269 269 269 268 268 269 270 270 272 274 277 278 281 283 284 286 287 288 290 290
230 233 236 237 238 240 243 247 249 251 252 255 258 258 260 261 264 265 266 267 270 271 271 272 273 272 272 272 272 271 270 271 273 274 276 277 279 283 285 287 288 289 289 289
Height
5883 5890 5895 5898 5901 5904 5907 5911 5915 5918 5920 5920 5919 5919 5919 5919 5920 5921 5921 5922 5922 5922 5922 5921 5920 5919 5917 5916 5914 5912 5911 5909 5907 5905 5904 5902 5900 5897 5895 5892 5890 5888 5885 5883
5876 5882 5888 5892 5896 5899 5902 5906 5909 5913 5915 5914 5914 5913 5914 5915 5916 5917 5917 5918 5918 5918 5918 5918 5917 5916 5914 5913 5911 5910 5908 5906 5905 5903 5901 5899 5897 5895 5892 5890 5888 5885 5883 5880
5869 5876 5880 5884 5889 5893 5897 5900 5904 5906 5908 5907 5908 5907 5908 5910 5911 5912 5913 5913 5914 5914 5914 5914 5913 5912 5911 5909 5908 5906 5905 5903 5901 5900 5898 5896 5894 5892 5889 5887 5885 5882 5880 5877
5863 5869 5872 5879 5884 5887 5890 5893 5896 5899 5901 5902 5902 5903 5904 5905 5906 5908 5908 5908 5909 5909 5909 5909 5909 5908 5907 5906 5904 5903 5901 5899 5898 5896 5894 5893 5891 5888 5886 5884 5882 5879 5877 5874
5855 5860 5865 5872 5876 5880 5883 5885 5889 5892 5895 5895 5896 5897 5898 5899 5900 5902 5903 5903 5903 5904 5904 5904 5904 5903 5903 5901 5900 5898 5897 5895 5893 5892 5890 5889 5887 5885 5882 5880 5878 5876 5873 5871
5848 5853 5859 5865 5870 5873 5877 5878 5882 5884 5887 5888 5889 5890 5892 5892 5894 5895 5896 5897 5898 5898 5898 5898 5898 5898 5897 5896 5895 5894 5892 5890 5889 5887 5885 5884 5882 5880 5878 5876 5874 5872 5869 5867
5840 5845 5852 5858 5861 5865 5869 5871 5874 5877 5878 5879 5882 5884 5885 5886 5887 5888 5889 5890 5891 5892 5892 5892 5892 5892 5891 5890 5889 5888 5886 5885 5883 5882 5880 5878 5877 5875 5873 5871 5869 5867 5865 5863
5833 5838 5846 5850 5853 5857 5859 5863 5866 5869 5870 5872 5875 5876 5877 5879 5880 5882 5882 5883 5884 5885 5886 5886 5886 5886 5885 5884 5883 5882 5880 5879 5877 5876 5874 5873 5871 5870 5868 5866 5864 5862 5860 5858
5826 5832 5836 5841 5844 5847 5851 5855 5858 5861 5862 5864 5866 5868 5870 5871 5873 5874 5875 5876 5877 5878 5878 5879 5879 5879 5878 5877 5876 5875 5874 5873 5871 5870 5869 5867 5866 5864 5862 5860 5859 5857 5855 5853
5817 5822 5827 5831 5835 5839 5843 5847 5850 5853 5855 5857 5858 5860 5862 5864 5865 5866 5867 5868 5869 5870 5871 5871 5872 5871 5870 5870 5869 5868 5867 5866 5865 5864 5862 5861 5859 5858 5857 5855 5853 5851 5849 5847
5808 5814 5818 5823 5827 5830 5835 5839 5843 5845 5847 5849 5851 5852 5854 5856 5857 5858 5859 5860 5861 5863 5863 5864 5864 5863 5863 5862 5861 5861 5860 5859 5858 5857 5855 5854 5853 5851 5850 5849 5847 5845 5843 5841
5800 5805 5810 5814 5818 5822 5827 5831 5834 5836 5838 5841 5842 5844 5846 5847 5849 5850 5851 5852 5853 5854 5855 5855 5855 5855 5855 5854 5853 5853 5852 5852 5851 5849 5848 5847 5845 5844 5843 5842 5840 5838 5836 5835
5792 5796 5801 5804 5810 5814 5818 5821 5825 5827 5830 5832 5834 5836 5838 5839 5841 5842 5843 5844 5845 5846 5846 5847 5847 5847 5846 5846 5846 5845 5845 5844 5843 5842 5840 5839 5838 5837 5836 5835 5833 5832 5830 5828
5784 5789 5793 5797 5801 5806 5809 5813 5816 5818 5821 5823 5826 5828 5829 5831 5832 5833 5834 5835 5836 5837 5838 5838 5839 5838 5838 5838 5837 5837 5836 5836 5835 5834 5833 5832 5830 5829 5828 5827 5826 5824 5823 5821
5776 5781 5785 5789 5793 5797 5801 5804 5807 5810 5812 5813 5816 5819 5820 5822 5823 5824 5825 5826 5827 5828 5829 5830 5830 5830 5829 5829 5829 5829 5828 5827 5827 5826 5825 5824 5823 5821 5820 5819 5818 5817 5815 5814
5767 5772 5776 5780 5785 5788 5792 5795 5798 5801 5802 5804 5807 5810 5812 5813 5814 5815 5816 5817 5818 5819 5820 5821 5821 5821 5820 5820 5819 5819 5819 5818 5817 5816 5816 5815 5814 5813 5812 5811 5809 5808 5807 5806
5759 5763 5767 5771 5775 5780 5783 5786 5788 5790 5793 5796 5798 5800 5802 5803 5805 5806 5807 5808 5809 5809 5810 5811 5812 5811 5810 5810 5810 5810 5810 5809 5809 5808 5807 5806 5805 5805 5804 5802 5801 5799 5799 5798
5750 5755 5759 5763 5767 5771 5775 5777 5779 5782 5784 5787 5789 5791 5792 5794 5795 5796 5797 5798 5799 5800 5801 5801 5802 5802 5801 5801 5801 5801 5800 5800 5799 5798 5798 5797 5797 5796 5795 5794 5793 5792 5791 5790
5741 5745 5750 5755 5758 5762 5766 5768 5770 5773 5776 5778 5779 5781 5783 5784 5785 5786 5787 5788 5788 5789 5791 5792 5792 5792 5792 5791 5791 5791 5791 5790 5790 5789 5789 5788 5788 5787 5786 5786 5785 5784 5783 5782
5733 5738 5743 5747 5750 5753 5756 5759 5761 5763 5766 5768 5770 5772 5773 5775 5776 5777 5777 5778 5778 5779 5780 5781 5782 5783 5783 5782 5782 5782 5782 5781 5781 5780 5779 5779 5779 5778 5778 5777 5776 5775 5774 5773
5726 5730 5734 5739 5742 5745 5748 5751 5753 5755 5757 5759 5761 5763 5764 5766 5767 5768 5768 5769 5770 5770 5770 5772 5773 5773 5774 5773 5773 5772 5772 5772 5771 5771 5769 5769 5769 5769 5768 5768 5767 5766 5765 5764
5720 5724 5728 5731 5735 5738 5740 5743 5745 5747 5749 5751 5753 5754 5756 5757 5758 5758 5759 5760 5761 5761 5761 5762 5763 5764 5764 5763 5763 5763 5763 5762 5762 5761 5761 5760 5760 5760 5759 5758 5757 5757 5756 5755
5716 5719 5722 5725 5728 5731 5734 5736 5738 5740 5742 5744 5745 5746 5748 5749 5750 5750 5751 5752 5752 5752 5752 5753 5754 5754 5754 5753 5753 5753 5753 5753 5752 5752 5752 5752 5752 5751 5751 5750 5749 5748 5747 5746
5711 5714 5716 5719 5722 5725 5727 5730 5732 5733 5735 5737 5738 5739 5740 5741 5742 5742 5743 5743 5743 5743 5743 5744 5744 5744 5744 5744 5744 5744 5744 5743 5743 5744 5744 5744 5743 5743 5742 5741 5740 5739 5738 5736
5706 5709 5711 5714 5717 5719 5721 5723 5725 5727 5728 5730 5731 5731 5732 5733 5734 5734 5734 5734 5734 5735 5735 5735 5734 5734 5734 5734 5734 5734 5734 5734 5735 5735 5735 5735 5734 5734 5733 5731 5730 5729 5728 5726
5702 5704 5706 5709 5711 5713 5715 5717 5718 5720 5721 5722 5723 5724 5725 5726 5726 5726 5726 5726 5726 5726 5726 5726 5725 5725 5724 5724 5724 5725 5725 5726 5726 5726 5726 5726 5725 5725 5723 5722 5721 5720 5718 5716
5697 5699 5701 5703 5705 5707 5709 5711 5712 5713 5714 5715 5716 5717 5717 5718 5718 5719 5718 5718 5718 5718 5718 5718 5717 5717 5716 5716 5716 5716 5716 5717 5717 5718 5718 5717 5717 5716 5714 5713 5712 5711 5709 5707